Location: Chapel Hill
(35.9134°N, 79.0560°W)
Time: 01:49:19
(UTC-05:00)

Courier 1B - Pass Details

Date: 15 September 2025
Orbit: 962 x 1208 km, 28.3° (Epoch: 15 January)

Event Time Altitude Azimuth Distance (km) Brightness Sun altitude
Rises 11:18:56 0° 232° (SW) 3,755 10.5 47.9°
Reaches altitude 10° 11:22:00 10° 222° (SW) 2,769 10.0 48.3°
Maximum altitude 11:27:39 30° 164° (SSE) 1,683 10.1 49.1°
Drops below altitude 10° 11:33:09 10° 105° (ESE) 2,691 10.5 49.8°
Sets 11:36:06 0° 95° (E) 3,633 10.9 50.2°
